Overview Statistics Trail Chart Weather Telemetry Raw packets
 

This is the latest recevied weather packets stored in our database for station/object N0KWA. If no packets are shown the sender has not sent any weather packets the latest 10 day(s).

<< 80 81 82 83 84 85 86 >>
Time Temp. Humidity Pressure Rain* Wind** Luminosity Snow
1787846460 23.89° C 99% 1017.8 hPa 0 mm - 37 W/m² -
1787846156 23.89° C 99% 1017.9 hPa 0 mm - 53 W/m² -
1787845851 23.89° C 99% 1017.7 hPa 0 mm - 52 W/m² -
1787845547 23.89° C 99% 1017.7 hPa 0 mm - 49 W/m² -
1787845247 23.89° C 99% 1017.9 hPa 0 mm - 40 W/m² -
1787844943 23.89° C 99% 1017.9 hPa 0 mm - 38 W/m² -
1787844637 23.33° C 99% 1017.9 hPa 0 mm - 35 W/m² -
1787844332 23.33° C 99% 1017.9 hPa 0 mm - 33 W/m² -
1787844031 22.78° C 99% 1017.8 hPa 0 mm - 31 W/m² -
1787843727 22.78° C 99% 1017.8 hPa 0 mm - 27 W/m² -
1787843422 22.78° C 99% 1017.8 hPa 0 mm - 26 W/m² -
1787843118 22.78° C 99% 1017.7 hPa 0 mm - 28 W/m² -
1787842818 22.78° C 99% 1017.8 hPa 0 mm - 27 W/m² -
1787842513 22.78° C 99% 1017.8 hPa 0 mm - 22 W/m² -
1787842212 22.22° C 99% 1017.6 hPa 0 mm - 19 W/m² -
1787841907 22.22° C 99% 1017.5 hPa 0 mm - 17 W/m² -
1787841603 22.22° C 99% 1017.4 hPa 0 mm - 14 W/m² -
1787841302 22.22° C 99% 1017.3 hPa 1.78 mm - 9 W/m² -
1787840997 22.22° C 99% 1017.5 hPa 1.78 mm - 9 W/m² -
1787840693 22.22° C 99% 1017.4 hPa 0 mm - 9 W/m² -
1787840387 22.22° C 99% 1017.3 hPa 1.27 mm - 5 W/m² -
1787840083 21.67° C 99% 1017.2 hPa 1.27 mm - 6 W/m² -
1787839778 21.67° C 99% 1017.4 hPa 1.78 mm - 5 W/m² -
1787839477 21.67° C 99% 1017.6 hPa 3.56 mm - 4 W/m² -
1787839177 21.67° C 99% 1017.8 hPa 3.05 mm - 1 W/m² -

* Rain latest hour (hover to see other rain measurements)
** Current wind speed in m/s (hover to see current wind gust speed)